W0KHZ Weather Reports


time (UTC)temp
F
wind
direction
speed
knots
gust
knots
rain 1hr
in
rain 24hr
in
rain mn
in
humidity
%
barometer
mb
20260508073521 33 0.0 0.0 0.00 0.00 0.00 74 1008.4
20260508073019 33 0.0 0.0 0.00 0.00 0.00 74 1008.5
20260508072537 33 0.0 0.0 0.00 0.00 0.00 74 1008.5
20260508072035 33 0.0 0.0 0.00 0.00 0.00 74 1008.5
20260508071553 33 0.0 0.0 0.00 0.00 0.00 75 1008.5
20260508071032 33 0.0 0.0 0.00 0.00 0.00 74 1008.6
20260508070530 33 0.0 0.0 0.00 0.00 0.00 73 1008.7
20260508070028 33 0.0 0.0 0.00 0.00 0.00 73 1008.7
20260508065526 33 0.0 0.0 0.00 0.00 0.00 73 1008.7
20260508065025 34 0.0 0.0 0.00 0.00 0.00 73 1008.8
20260508064523 34 0.0 0.0 0.00 0.00 0.00 73 1008.8
20260508064041 34 0.0 0.0 0.00 0.00 0.00 73 1008.9
20260508063519 34 0.0 0.0 0.00 0.00 0.00 73 1008.8
20260508063017 34 0.0 0.0 0.00 0.00 0.00 72 1008.9
20260508062536 34 0.0 0.0 0.00 0.00 0.00 71 1009.0
20260508062033 34 0.0 0.0 0.00 0.00 0.00 71 1009.1
20260508061532 34 0.0 0.0 0.00 0.00 0.00 72 1009.1
20260508061030 34 0.0 0.0 0.00 0.00 0.00 71 1009.0
20260508060528 35 0.0 0.0 0.00 0.00 0.00 69 1009.2
20260508060026 35 0.0 0.0 0.00 0.00 0.00 68 1009.1
20260508055525 36 0.0 0.0 0.00 0.00 0.00 67 1009.1
20260508055023 36 0.0 0.0 0.00 0.00 0.00 68 1009.0
20260508054521 36 0.0 0.0 0.00 0.00 0.00 68 1009.0
20260508054019 35 0.0 0.0 0.00 0.00 0.00 69 1009.1
20260508053516 35 0.0 0.0 0.00 0.00 0.00 70 1009.2
20260508053035 36 0.0 0.0 0.00 0.00 0.00 69 1009.2
20260508052533 36 0.0 0.0 0.00 0.00 0.00 67 1009.2
20260508052031 36 0.0 0.0 0.00 0.00 0.00 67 1009.2
20260508051530 36 0.0 0.0 0.00 0.00 0.00 67 1009.2
20260508051028 36 0.0 0.0 0.00 0.00 0.00 68 1009.2
20260508050526 36 0.0 0.0 0.00 0.00 0.00 67 1009.3
20260508050024 36 0.0 0.0 0.00 0.00 0.00 66 1009.3
20260508045523 36 0.0 0.0 0.00 0.00 0.00 66 1009.2
20260508045021 37 0.0 0.0 0.00 0.00 0.00 67 1009.2
20260508044538 37 0.0 0.0 0.00 0.00 0.00 65 1009.2
20260508044016 37 0.0 0.0 0.00 0.00 0.00 65 1009.3
20260508043534 37 0.0 0.0 0.00 0.00 0.00 65 1009.3
20260508043053 37 0.0 0.0 0.00 0.00 0.00 64 1009.4
20260508042611 37 0.0 0.0 0.00 0.00 0.00 64 1009.4
20260508042029 38 0.0 0.0 0.00 0.00 0.00 64 1009.4
20260508041527 38 0.0 0.0 0.00 0.00 0.00 64 1009.4
20260508041026 38 0.0 0.0 0.00 0.00 0.00 63 1009.4
20260508040524 38 0.0 0.0 0.00 0.00 0.00 61 1009.3
20260508040022 39 0.0 0.0 0.00 0.00 0.00 62 1009.4
20260508035521 39 0.0 0.0 0.00 0.00 0.00 61 1009.3
20260508035018 39 0.0 0.0 0.00 0.00 0.00 60 1009.3
20260508034516 39 0.0 0.0 0.00 0.00 0.00 59 1009.2
20260508034034 39 0.0 0.0 0.00 0.00 0.00 61 1009.4
20260508033532 40 0.0 0.0 0.00 0.00 0.00 59 1009.3
20260508033030 40 0.0 0.0 0.00 0.00 0.00 58 1009.3
20260508032529 41 0.0 0.0 0.00 0.00 0.00 56 1009.2
20260508032027 41 0.0 0.0 0.00 0.00 0.00 55 1009.2
20260508031525 41 0.0 0.0 0.00 0.00 0.00 56 1009.3
20260508031023 41 0.0 0.0 0.00 0.00 0.00 55 1009.2
20260508030521 41 0.0 0.0 0.00 0.00 0.00 56 1009.1
20260508030019 42 0.0 0.0 0.00 0.00 0.00 56 1009.2
20260508025517 42 0.0 0.0 0.00 0.00 0.00 57 1009.1
20260508025035 42 0.0 0.0 0.00 0.00 0.00 55 1009.1
20260508024533 43 0.0 0.0 0.00 0.00 0.00 54 1009.1
20260508024051 43 0.0 0.0 0.00 0.00 0.00 53 1009.0
20260508023529 44 0.0 0.0 0.00 0.00 0.00 51 1009.1
20260508023048 44 0.0 0.0 0.00 0.00 0.00 50 1009.1
20260508022526 44 0.0 0.0 0.00 0.00 0.00 51 1008.9
20260508022024 44 0.0 0.0 0.00 0.00 0.00 50 1008.8
20260508021522 44 0.0 0.0 0.00 0.00 0.00 50 1008.7
20260508021020 45 0.0 0.0 0.00 0.00 0.00 49 1008.7
20260508020537 45 0.0 0.0 0.00 0.00 0.00 49 1008.7
20260508020015 46 0.0 0.0 0.00 0.00 0.00 48 1008.5
20260508015534 46 0.0 0.0 0.00 0.00 0.00 46 1008.5
20260508015032 47 0.0 0.0 0.00 0.00 0.00 44 1008.5
20260508014530 47 0.0 0.0 0.00 0.00 0.00 43 1008.5
20260508014028 48 0.0 0.0 0.00 0.00 0.00 43 1008.4
20260508013526 48 0.0 0.0 0.00 0.00 0.00 42 1008.3
20260508013024 49 0.0 0.0 0.00 0.00 0.00 41 1008.4
20260508012522 50 0.0 0.0 0.00 0.00 0.00 40 1008.4
20260508012040 51 0.0 0.0 0.00 0.00 0.00 39 1008.2
20260508011518 51 0.0 0.0 0.00 0.00 0.00 36 1008.3
20260508011016 52 0.0 0.0 0.00 0.00 0.00 35 1008.3
20260508010534 52 0.0 0.0 0.00 0.00 0.00 34 1008.2
20260508010032 53 0.0 0.0 0.00 0.00 0.00 33 1008.2
20260508005530 54 0.0 0.0 0.00 0.00 0.00 33 1008.1
20260508005029 54 294 0.0 0.9 0.00 0.00 0.00 32 1008.1
20260508004527 54 296 0.9 2.6 0.00 0.00 0.00 31 1008.1
20260508004025 55 310 0.0 0.9 0.00 0.00 0.00 31 1008.1
20260508003523 55 311 0.9 2.6 0.00 0.00 0.00 31 1008.0
20260508003021 55 306 0.9 2.6 0.00 0.00 0.00 30 1008.0
20260508002518 55 297 1.7 3.5 0.00 0.00 0.00 30 1008.0
20260508002056 56 299 2.6 8.7 0.00 0.00 0.00 30 1007.9
20260508001534 56 294 2.6 7.0 0.00 0.00 0.00 30 1007.9
20260508001032 56 306 1.7 5.2 0.00 0.00 0.00 30 1007.8
20260508000530 56 294 1.7 5.2 0.00 0.00 0.00 29 1007.8
20260508000028 56 291 2.6 6.1 0.00 0.00 0.00 30 1007.8
20260507235527 57 311 2.6 7.8 0.00 0.00 0.00 29 1007.8
20260507235045 57 318 1.7 7.8 0.00 0.00 0.00 30 1007.9
20260507234523 57 304 0.9 2.6 0.00 0.00 0.00 29 1007.9
20260507234021 57 302 0.9 5.2 0.00 0.00 0.00 29 1007.8
20260507233519 57 297 1.7 6.1 0.00 0.00 0.00 29 1007.7
20260507233017 57 307 1.7 5.2 0.00 0.00 0.00 29 1007.7
20260507232535 58 291 2.6 8.7 0.00 0.00 0.00 29 1007.9
20260507232033 58 303 2.6 7.0 0.00 0.00 0.00 29 1007.7
20260507231531 58 317 1.7 3.5 0.00 0.00 0.00 29 1007.9
20260507231029 58 311 2.6 13.0 0.00 0.00 0.00 28 1007.8
20260507230527 58 331 2.6 6.1 0.00 0.00 0.00 29 1007.8
20260507230026 58 295 2.6 8.7 0.00 0.00 0.00 30 1007.9
20260507225524 58 306 2.6 6.1 0.00 0.00 0.00 29 1007.8
20260507225022 58 294 2.6 9.6 0.00 0.00 0.00 29 1007.9
20260507224521 58 317 1.7 5.2 0.00 0.00 0.00 29 1007.9
20260507224018 58 298 2.6 7.8 0.00 0.00 0.00 29 1007.9
20260507223536 58 287 3.5 8.7 0.00 0.00 0.00 29 1007.9
20260507223034 59 305 2.6 7.0 0.00 0.00 0.00 28 1007.9
20260507222532 59 321 1.7 3.5 0.00 0.00 0.00 29 1007.8
20260507222031 59 271 1.7 7.0 0.00 0.00 0.00 30 1007.9
20260507221529 59 249 1.7 6.1 0.00 0.00 0.00 30 1007.9
20260507221027 59 270 1.7 5.2 0.00 0.00 0.00 31 1007.9
20260507220545 59 289 1.7 8.7 0.00 0.00 0.00 29 1008.0
20260507220023 59 327 3.5 9.6 0.00 0.00 0.00 28 1008.1
20260507215522 60 316 3.5 13.9 0.00 0.00 0.00 27 1007.8
20260507215020 60 312 2.6 9.6 0.00 0.00 0.00 30 1007.8
20260507214518 60 243 2.6 6.1 0.00 0.00 0.00 30 1007.9
20260507214035 60 321 1.7 9.6 0.00 0.00 0.00 29 1007.8
20260507213553 60 303 2.6 9.6 0.00 0.00 0.00 29 1007.8
20260507213031 60 300 2.6 7.8 0.00 0.00 0.00 30 1007.8
20260507212529 60 306 2.6 9.6 0.00 0.00 0.00 30 1007.9
20260507212027 60 310 2.6 7.8 0.00 0.00 0.00 30 1007.9
20260507211525 60 301 4.3 9.6 0.00 0.00 0.00 30 1007.9
20260507211023 60 298 4.3 13.0 0.00 0.00 0.00 30 1008.0
20260507210521 60 298 2.6 7.0 0.00 0.00 0.00 29 1007.8
20260507210019 60 325 1.7 5.2 0.00 0.00 0.00 31 1007.9
20260507205516 60 310 2.6 9.6 0.00 0.00 0.00 30 1008.1
20260507205034 60 316 3.5 7.8 0.00 0.00 0.00 30 1008.0
20260507204533 60 302 2.6 6.1 0.00 0.00 0.00 32 1008.2
20260507204030 60 272 1.7 6.1 0.00 0.00 0.00 31 1008.2
20260507203528 60 299 2.6 13.0 0.00 0.00 0.00 31 1008.3
20260507203046 60 319 1.7 3.5 0.00 0.00 0.00 32 1008.3
20260507202524 60 323 3.5 7.8 0.00 0.00 0.00 32 1008.3
20260507202042 59 302 2.6 6.1 0.00 0.00 0.00 33 1008.2
20260507201520 59 312 2.6 8.7 0.00 0.00 0.00 32 1008.4
20260507201037 59 291 1.7 6.1 0.00 0.00 0.00 32 1008.4
20260507200535 59 300 3.5 9.6 0.00 0.00 0.00 31 1008.5
20260507200053 59 335 2.6 11.3 0.00 0.00 0.00 33 1008.4
20260507195531 59 275 1.7 5.2 0.00 0.00 0.00 33 1008.5
20260507195029 59 296 2.6 5.2 0.00 0.00 0.00 33 1008.4
20260507194527 60 313 4.3 14.8 0.00 0.00 0.00 32 1008.6
20260507194025 59 316 1.7 11.3 0.00 0.00 0.00 34 1008.5
20260507193523 59 295 2.6 7.8 0.00 0.00 0.00 35 1008.6
20260507193022 59 313 3.5 11.3 0.00 0.00 0.00 36 1008.7
20260507192519 59 290 2.6 7.8 0.00 0.00 0.00 34 1008.7
20260507192036 59 293 2.6 7.0 0.00 0.00 0.00 35 1008.7
20260507191534 59 295 2.6 6.1 0.00 0.00 0.00 36 1008.9
20260507191033 59 318 3.5 7.8 0.00 0.00 0.00 34 1008.7
20260507190531 59 310 2.6 8.7 0.00 0.00 0.00 35 1008.8
20260507190029 58 239 2.6 8.7 0.00 0.00 0.00 35 1008.7
20260507185548 58 313 1.7 7.0 0.00 0.00 0.00 34 1008.8
20260507185026 58 324 4.3 13.9 0.00 0.00 0.00 34 1008.7
20260507184544 58 298 3.5 7.0 0.00 0.00 0.00 35 1008.6
20260507184042 58 307 2.6 7.8 0.00 0.00 0.00 35 1008.8
20260507183520 57 281 3.5 13.0 0.00 0.00 0.00 40 1008.8
20260507183018 57 286 1.7 7.8 0.00 0.00 0.00 40 1008.7
20260507182516 56 288 3.5 9.6 0.00 0.00 0.00 39 1008.8
20260507182034 56 301 1.7 11.3 0.00 0.00 0.00 43 1008.7
20260507181532 56 276 0.9 2.6 0.00 0.00 0.00 43 1008.8
20260507181031 56 293 1.7 2.6 0.00 0.00 0.00 42 1008.9
20260507180529 57 304 2.6 8.7 0.00 0.00 0.00 40 1009.1
20260507180027 58 324 2.6 7.0 0.00 0.00 0.00 42 1009.0
20260507175525 58 288 2.6 7.8 0.00 0.00 0.00 42 1009.1
20260507175043 57 230 1.7 6.1 0.00 0.00 0.00 45 1009.2
20260507174521 57 231 0.9 5.2 0.00 0.00 0.00 47 1009.2
20260507174020 56 250 2.6 7.8 0.00 0.00 0.00 45 1009.2
20260507173517 56 310 1.7 7.0 0.00 0.00 0.00 45 1009.2
20260507173035 55 289 1.7 6.1 0.00 0.00 0.00 46 1009.3
20260507172533 55 257 2.6 5.2 0.00 0.00 0.00 47 1009.4
20260507172031 55 275 1.7 7.8 0.00 0.00 0.00 47 1009.4
20260507171529 56 250 2.6 7.0 0.00 0.00 0.00 44 1009.6
20260507171028 56 296 2.6 7.8 0.00 0.00 0.00 46 1009.6
20260507170526 55 288 2.6 9.6 0.00 0.00 0.00 48 1009.6
20260507170025 55 283 0.9 3.5 0.00 0.00 0.00 48 1009.9
20260507165522 55 294 2.6 7.0 0.00 0.00 0.00 48 1009.8
20260507165021 55 318 1.7 5.2 0.00 0.00 0.00 48 1009.8
20260507164519 55 321 2.6 5.2 0.00 0.00 0.00 47 1009.7
20260507164036 54 254 0.9 3.5 0.00 0.00 0.00 49 1009.8
20260507163534 54 250 1.7 6.1 0.00 0.00 0.00 49 1009.9
20260507163032 54 278 1.7 7.0 0.00 0.00 0.00 50 1009.9
20260507162550 54 42 1.7 5.2 0.00 0.00 0.00 49 1009.9
20260507162028 54 316 0.9 2.6 0.00 0.00 0.00 50 1010.0
20260507161606 54 289 2.6 7.8 0.00 0.00 0.00 52 1010.1
20260507161024 53 263 0.9 1.7 0.00 0.00 0.00 55 1010.1
20260507160522 53 227 0.9 5.2 0.00 0.00 0.00 55 1010.1
20260507160020 53 225 1.7 6.1 0.00 0.00 0.00 54 1010.1
20260507155518 52 267 1.7 3.5 0.00 0.00 0.00 55 1010.1
20260507155016 52 262 1.7 3.5 0.00 0.00 0.00 55 1010.2
20260507154534 51 257 0.9 2.6 0.00 0.00 0.00 53 1010.2
20260507154032 51 280 1.7 6.1 0.00 0.00 0.00 55 1010.4
20260507153530 51 289 1.7 5.2 0.00 0.00 0.00 57 1010.4
20260507153028 50 298 1.7 3.5 0.00 0.00 0.00 57 1010.5
20260507152527 50 250 0.9 2.6 0.00 0.00 0.00 58 1010.5
20260507152025 50 270 1.7 2.6 0.00 0.00 0.00 58 1010.6
20260507151523 49 296 1.7 5.2 0.00 0.00 0.00 59 1010.7
20260507151021 49 285 1.7 5.2 0.00 0.00 0.00 62 1010.8
20260507150520 48 287 0.9 2.6 0.00 0.00 0.00 64 1010.8
20260507150017 47 282 0.9 2.6 0.00 0.00 0.00 66 1011.0
20260507145535 46 278 1.7 5.2 0.00 0.00 0.00 67 1011.0
20260507145033 45 271 0.0 1.7 0.00 0.00 0.00 71 1011.1
20260507144551 44 271 0.9 2.6 0.00 0.00 0.00 73 1011.1
20260507144029 44 0.0 0.0 0.00 0.00 0.00 74 1011.3
20260507143548 43 0.0 0.0 0.00 0.00 0.00 74 1011.3
20260507143026 42 0.0 0.0 0.00 0.00 0.00 74 1011.5
20260507142524 42 0.0 0.0 0.00 0.00 0.00 76 1011.5
20260507142023 41 0.0 0.0 0.00 0.00 0.00 77 1011.6
20260507141541 40 0.0 0.0 0.00 0.00 0.00 78 1011.8
20260507141019 39 0.0 0.0 0.00 0.00 0.00 79 1011.9
20260507140516 39 0.0 0.0 0.00 0.00 0.00 79 1011.8
20260507140034 39 0.0 0.0 0.00 0.00 0.00 80 1011.9
20260507135532 38 0.0 0.0 0.00 0.00 0.00 80 1012.0
20260507135030 38 0.0 0.0 0.00 0.00 0.00 80 1011.8
20260507134529 38 0.0 0.0 0.00 0.00 0.00 81 1011.8
20260507134027 38 0.0 0.0 0.00 0.00 0.00 81 1011.9
20260507133525 38 0.0 0.0 0.00 0.00 0.00 82 1011.6
20260507133023 37 0.0 0.0 0.00 0.00 0.00 83 1011.7
20260507132521 37 0.0 0.0 0.00 0.00 0.00 83 1011.7
20260507132020 36 0.0 0.0 0.00 0.00 0.00 84 1011.7
20260507131537 35 0.0 0.0 0.00 0.00 0.00 84 1011.7
20260507131035 35 0.0 0.0 0.00 0.00 0.00 84 1011.6
20260507130533 34 0.0 0.0 0.00 0.00 0.00 84 1011.8
20260507130052 34 0.0 0.0 0.00 0.00 0.00 85 1011.9
20260507125530 33 0.0 0.0 0.00 0.00 0.00 85 1011.9
20260507125028 33 0.0 0.0 0.00 0.00 0.00 85 1011.9
20260507124527 33 0.0 0.0 0.00 0.00 0.00 85 1011.8
20260507124025 32 0.0 0.0 0.00 0.00 0.00 85 1011.9
20260507123523 32 0.0 0.0 0.00 0.00 0.00 86 1011.8
20260507123041 31 0.0 0.0 0.00 0.00 0.00 86 1011.8
20260507122519 31 0.0 0.0 0.00 0.00 0.00 85 1011.9
20260507122016 31 0.0 0.0 0.00 0.00 0.00 85 1011.8
20260507121614 30 0.0 0.0 0.00 0.00 0.00 86 1011.9
20260507121032 30 0.0 0.0 0.00 0.00 0.00 86 1011.9
20260507120530 30 0.0 0.0 0.00 0.00 0.00 86 1012.0
20260507120029 30 0.0 0.0 0.00 0.00 0.00 86 1011.8
20260507115527 29 0.0 0.0 0.00 0.00 0.00 86 1011.9
20260507115045 29 0.0 0.0 0.00 0.00 0.00 86 1011.8
20260507114543 29 0.0 0.0 0.00 0.00 0.00 86 1012.0
20260507114022 29 0.0 0.0 0.00 0.00 0.00 86 1011.8
20260507113520 29 0.0 0.0 0.00 0.00 0.00 86 1011.8
20260507113037 29 0.0 0.0 0.00 0.00 0.00 85 1011.8
20260507112515 28 0.0 0.0 0.00 0.00 0.00 85 1011.7
20260507112034 28 0.0 0.0 0.00 0.00 0.00 85 1011.7
20260507111532 28 0.0 0.0 0.00 0.00 0.00 85 1011.7
20260507111030 28 0.0 0.0 0.00 0.00 0.00 85 1011.8
20260507110528 28 0.0 0.0 0.00 0.00 0.00 85 1011.6
20260507110047 28 0.0 0.0 0.00 0.00 0.00 85 1011.8
20260507105525 28 0.0 0.0 0.00 0.00 0.00 85 1011.8
20260507105023 28 0.0 0.0 0.00 0.00 0.00 85 1011.8
20260507104521 29 0.0 0.0 0.00 0.00 0.00 85 1011.8
20260507104019 29 0.0 0.0 0.00 0.00 0.00 85 1011.7
20260507103517 29 0.0 0.0 0.00 0.00 0.00 85 1011.7
20260507103034 28 0.0 0.0 0.00 0.00 0.00 85 1011.7
20260507102533 29 0.0 0.0 0.00 0.00 0.00 85 1011.9
20260507102031 29 0.0 0.0 0.00 0.00 0.00 85 1011.9
20260507101529 29 0.0 0.0 0.00 0.00 0.00 85 1012.0
20260507101027 29 0.0 0.0 0.00 0.00 0.00 85 1011.9
20260507100525 29 0.0 0.0 0.00 0.00 0.00 85 1011.9
20260507100023 29 0.0 0.0 0.00 0.00 0.00 85 1011.9
20260507095522 29 0.0 0.0 0.00 0.00 0.00 85 1011.9
20260507095020 29 0.0 0.0 0.00 0.00 0.00 85 1011.9
20260507094518 29 0.0 0.0 0.00 0.00 0.00 85 1012.0
20260507094015 29 0.0 0.0 0.00 0.00 0.00 85 1012.1
20260507093534 29 0.0 0.0 0.00 0.00 0.00 84 1012.1
20260507093032 29 0.0 0.0 0.00 0.00 0.00 84 1012.2
20260507092550 29 0.0 0.0 0.00 0.00 0.00 84 1012.1
20260507092029 29 0.0 0.0 0.00 0.00 0.00 84 1012.2
20260507091526 30 0.0 0.0 0.00 0.00 0.00 84 1012.2
20260507091025 30 0.0 0.0 0.00 0.00 0.00 84 1012.2
20260507090523 30 0.0 0.0 0.00 0.00 0.00 84 1012.2
20260507090021 30 0.0 0.0 0.00 0.00 0.00 83 1012.3
20260507085520 30 0.0 0.0 0.00 0.00 0.00 83 1012.3
20260507085058 30 0.0 0.0 0.00 0.00 0.00 83 1012.5
20260507084535 30 0.0 0.0 0.00 0.00 0.00 83 1012.5
20260507084034 30 0.0 0.0 0.00 0.00 0.00 83 1012.6
20260507083552 30 0.0 0.0 0.00 0.00 0.00 83 1012.6
20260507083030 30 0.0 0.0 0.00 0.00 0.00 83 1012.8
20260507082528 30 0.0 0.0 0.00 0.00 0.00 83 1012.7
20260507082026 30 0.0 0.0 0.00 0.00 0.00 83 1012.5
20260507081525 30 0.0 0.0 0.00 0.00 0.00 83 1012.7
20260507081023 30 0.0 0.0 0.00 0.00 0.00 83 1012.6
20260507080521 30 0.0 0.0 0.00 0.00 0.00 83 1012.7
20260507080019 30 0.0 0.0 0.00 0.00 0.00 82 1012.7
20260507075516 30 0.0 0.0 0.00 0.00 0.00 82 1012.8
20260507075054 30 0.0 0.0 0.00 0.00 0.00 82 1012.7
20260507074533 30 0.0 0.0 0.00 0.00 0.00 82 1012.8
20260507074031 30 0.0 0.0 0.00 0.00 0.00 82 1012.7